Regional Weather Roundup
Issued by NWS

Home | Current Version | Previous Version | Text Only | Print | Product List | Glossary Off
Versions: 1 2 3 4 5 6 7 8 9 10 11 12 13 14 15 16 17 18 19 20 21 22 23 24 25 26 27 28 29 30 31 32 33 34 35 36 37 38 39 40 41 42 43 44 45 46 47 48 49 50

000
ASUS43 KLSX 041810
RWRMO

WEATHER SUMMARY FOR MISSOURI
NATIONAL WEATHER SERVICE SPRINGFIELD MO
100 PM CDT WED MAY 04 2016

NOTE: "FAIR" INDICATES FEW OR NO CLOUDS BELOW 12,000 FEET WITH NO
       SIGNIFICANT WEATHER AND/OR OBSTRUCTIONS TO VISIBILITY.
       CURRENT SKY AND/OR WEATHER CONDITIONS ARE NOT AVAILABLE FOR
       CHILLICOTHE AND FARMINGTON.

MOZ001>031-035>038-043-044-053-054-041900-
...NORTHERN AND WESTERN MISSOURI...

CITY           SKY/WX    TMP DP  RH WIND       PRES   REMARKS
KANSAS CTY INT MOSUNNY   67  40  37 N16G23    30.00S
6HR MIN TEMP:  53; 6HR MAX TEMP:  68;

KANSAS C DTWN  SUNNY     70  41  34 N9G21     29.98F
6HR MIN TEMP:  55; 6HR MAX TEMP:  70;

LEE`S SUMMIT   SUNNY     67  39  35 N13G23    29.99S
6HR MIN TEMP:  55; 6HR MAX TEMP:  68;

ST JOSEPH      SUNNY     67  38  34 NW17G25   30.01S
6HR MIN TEMP:  53; 6HR MAX TEMP:  68;

CHILLICOTHE      N/A     66  42  41 N9G20     29.97S
6HR MIN TEMP:  55; 6HR MAX TEMP:  68;

KIRKSVILLE     SUNNY     64  37  36 NW16G23   29.94S
6HR MIN TEMP:  53; 6HR MAX TEMP:  64; 6HR PCP: TRACE;


$$
MOZ066>068-077>081-088>096-101>105-041900-
...SOUTHWEST MISSOURI...

CITY           SKY/WX    TMP DP  RH WIND       PRES   REMARKS
SPRINGFIELD    SUNNY     69  36  29 N25G31    29.92S
6HR MIN TEMP:  54; 6HR MAX TEMP:  71;

JOPLIN         SUNNY     70  39  32 N16G24    29.97S
6HR MIN TEMP:  52; 6HR MAX TEMP:  70;

BRANSON        SUNNY     70  37  30 NW16G31   29.92R

$$
MOZ032>034-039>042-045>050-055>058-069>072-041900-
...CENTRAL MISSOURI...

CITY           SKY/WX    TMP DP  RH WIND       PRES   REMARKS
COLUMBIA       MOSUNNY   67  40  37 N25G32    29.90R
6HR MIN TEMP:  56; 6HR MAX TEMP:  68;

JEFFERSON CITY MOSUNNY   68  37  32 N22G30    29.89R
6HR MIN TEMP:  57; 6HR MAX TEMP:  69;

ROLLA          MOSUNNY   66  41  40 N17G25    29.86R
6HR MIN TEMP:  49; 6HR MAX TEMP:  67;

SEDALIA        SUNNY     69  43  38 N18       29.95R
6HR MIN TEMP:  56; 6HR MAX TEMP:  69;

WHITEMAN AFB   MOSUNNY   67  41  37 NW20      29.94S
WARRENSBURG    SUNNY     68  37  32 NW16      29.96S
OSAGE BEACH    MOSUNNY   68  39  34 NW8G20    29.91S

$$
MOZ051-052-059>065-041900-
...EAST CENTRAL MISSOURI...

CITY           SKY/WX    TMP DP  RH WIND       PRES   REMARKS
ST LOUIS INTL  MOSUNNY   68  41  37 N16G26    29.83R
6HR MIN TEMP:  57; 6HR MAX TEMP:  68;

SPIRIT OF STL  MOSUNNY   67  42  40 N20G26    29.83R
6HR MIN TEMP:  56; 6HR MAX TEMP:  68;

ST CHARLES     PTSUNNY   65  43  44 N16G25    29.83R
6HR MIN TEMP:  55; 6HR MAX TEMP:  67;


$$
MOZ072>076-082>087-097>100-106>115-041900-
...SOUTH CENTRAL AND SOUTHEAST MISSOURI...

CITY           SKY/WX    TMP DP  RH WIND       PRES   REMARKS
CAPE GIRARDEAU MOSUNNY   71  46  40 N16G25    29.77R
6HR MIN TEMP:  53; 6HR MAX TEMP:  71;

FARMINGTON     MOSUNNY   67  42  40 N17G24    29.82R
6HR MIN TEMP:  56; 6HR MAX TEMP:  67; 6HR PCP: TRACE;

POPLAR BLUFF   MOSUNNY   74  45  35 NW17G31   29.77S
6HR MIN TEMP:  49; 6HR MAX TEMP:  74;

WEST PLAINS    SUNNY     71  38  29 NW22G29   29.86S
6HR MIN TEMP:  48; 6HR MAX TEMP:  71;


$$




USA.gov is the U.S. government's official web portal to all federal, state and local government web resources and services.